{"data":{"norad_id":65259,"intl_designator":"2025-180A","name":"2025-180A","alt_names":[],"object_type":"PAYLOAD","status":"ACTIVE","operator":null,"country":"TBD","launch_date":"2025-08-19","launch_site_code":"JSC","launch_vehicle":null,"mission":null,"orbit_class":"UNKNOWN","rcs_meters":null,"size_class":null,"mass_kg":null,"dimensions":null,"purposes":[],"wikipedia_slug":null,"has_3d_model":false,"image_url":null,"decayed_at":null,"tle_current":{"epoch":"2026-05-19T17:54:14.277312Z","epoch_age_seconds":529080,"freshness":"STALE","line1":"1 65259U 25180A   26139.74599858  .00010084  00000+0  44106-3 0  9999","line2":"2 65259  97.5163 268.5846 0013141  61.5305 298.7253 15.22188793 41466","mean_motion":15.22188793,"eccentricity":0.0013141,"inclination_deg":97.5163,"raan_deg":268.5846,"arg_perigee_deg":61.5305,"mean_anomaly_deg":298.7253,"bstar":0.00044106,"rev_number":4146,"period_min":94.600617651506,"perigee_km":490.20237548968,"apogee_km":508.27749755425,"semimajor_km":6877.376936522,"source":"CELESTRAK","updated_at":"2026-05-25T13:38:05.261607Z"}}}